Year,Month,Day,Hour,Minute,Value (Times are PST for temperature in C)
2015,06,27,00,00,19.70
2015,06,27,00,01,19.70
2015,06,27,00,02,19.60
2015,06,27,00,03,19.60
2015,06,27,00,04,19.60
2015,06,27,00,05,19.60
2015,06,27,00,06,19.60
2015,06,27,00,07,19.60
2015,06,27,00,08,19.60
2015,06,27,00,09,19.60
2015,06,27,00,10,19.60
2015,06,27,00,11,19.60
2015,06,27,00,12,19.60
2015,06,27,00,13,19.60
2015,06,27,00,14,19.70
2015,06,27,00,15,19.70
2015,06,27,00,16,19.70
2015,06,27,00,17,19.80
2015,06,27,00,18,19.80
2015,06,27,00,19,19.90
2015,06,27,00,20,19.90
2015,06,27,00,21,19.90
2015,06,27,00,22,20.00
2015,06,27,00,23,20.00
2015,06,27,00,24,20.10
2015,06,27,00,25,20.10
2015,06,27,00,26,20.10
2015,06,27,00,27,20.20
2015,06,27,00,28,20.20
2015,06,27,00,29,20.20
2015,06,27,00,30,20.30
2015,06,27,00,31,20.30
2015,06,27,00,32,20.30
2015,06,27,00,33,20.30
2015,06,27,00,34,20.30
2015,06,27,00,35,20.30
2015,06,27,00,36,20.40
2015,06,27,00,37,20.40
2015,06,27,00,38,20.40
2015,06,27,00,39,20.40
2015,06,27,00,40,20.40
2015,06,27,00,41,20.40
2015,06,27,00,42,20.40
2015,06,27,00,43,20.40
2015,06,27,00,44,20.40
2015,06,27,00,45,20.40
2015,06,27,00,46,20.40
2015,06,27,00,47,20.40
2015,06,27,00,48,20.30
2015,06,27,00,49,20.30
2015,06,27,00,50,20.30
2015,06,27,00,51,20.20
2015,06,27,00,52,20.20
2015,06,27,00,53,20.20
2015,06,27,00,54,20.20
2015,06,27,00,55,20.10
2015,06,27,00,56,20.10
2015,06,27,00,57,20.00
2015,06,27,00,58,20.00
2015,06,27,00,59,19.90
2015,06,27,01,00,19.90
2015,06,27,01,01,19.90
2015,06,27,01,02,19.80
2015,06,27,01,03,19.80
2015,06,27,01,04,19.80
2015,06,27,01,05,19.70
2015,06,27,01,06,19.70
2015,06,27,01,07,19.60
2015,06,27,01,08,19.60
2015,06,27,01,09,19.60
2015,06,27,01,10,19.50
2015,06,27,01,11,19.50
2015,06,27,01,12,19.50
2015,06,27,01,13,19.40
2015,06,27,01,14,19.40
2015,06,27,01,15,19.40
2015,06,27,01,16,19.40
2015,06,27,01,17,19.40
2015,06,27,01,18,19.40
2015,06,27,01,19,19.40
2015,06,27,01,20,19.30
2015,06,27,01,21,19.30
2015,06,27,01,22,19.30
2015,06,27,01,23,19.30
2015,06,27,01,24,19.20
2015,06,27,01,25,19.20
2015,06,27,01,26,19.20
2015,06,27,01,27,19.20
2015,06,27,01,28,19.10
2015,06,27,01,29,19.10
2015,06,27,01,30,19.10
2015,06,27,01,31,19.00
2015,06,27,01,32,19.00
2015,06,27,01,33,19.00
2015,06,27,01,34,18.90
2015,06,27,01,35,18.90
2015,06,27,01,36,18.90
2015,06,27,01,37,18.90
2015,06,27,01,38,18.80
2015,06,27,01,39,18.80
2015,06,27,01,40,18.80
2015,06,27,01,41,18.80
2015,06,27,01,42,18.80
2015,06,27,01,43,18.70
2015,06,27,01,44,18.70
2015,06,27,01,45,18.70
2015,06,27,01,46,18.70
2015,06,27,01,47,18.70
2015,06,27,01,48,18.70
2015,06,27,01,49,18.70
2015,06,27,01,50,18.70
2015,06,27,01,51,18.80
2015,06,27,01,52,18.80
2015,06,27,01,53,18.80
2015,06,27,01,54,18.70
2015,06,27,01,55,18.70
2015,06,27,01,56,18.70
2015,06,27,01,57,18.60
2015,06,27,01,58,18.60
2015,06,27,01,59,18.60
2015,06,27,02,00,18.50
2015,06,27,02,01,18.40
2015,06,27,02,02,18.40
2015,06,27,02,03,18.30
2015,06,27,02,04,18.20
2015,06,27,02,05,18.10
2015,06,27,02,06,18.10
2015,06,27,02,07,18.00
2015,06,27,02,08,18.00
2015,06,27,02,09,17.90
2015,06,27,02,10,17.90
2015,06,27,02,11,17.80
2015,06,27,02,12,17.80
2015,06,27,02,13,17.70
2015,06,27,02,14,17.70
2015,06,27,02,15,17.70
2015,06,27,02,16,17.70
2015,06,27,02,17,17.70
2015,06,27,02,18,17.70
2015,06,27,02,19,17.60
2015,06,27,02,20,17.60
2015,06,27,02,21,17.60
2015,06,27,02,22,17.60
2015,06,27,02,23,17.60
2015,06,27,02,24,17.60
2015,06,27,02,25,17.60
2015,06,27,02,26,17.60
2015,06,27,02,27,17.60
2015,06,27,02,28,17.60
2015,06,27,02,29,17.60
2015,06,27,02,30,17.60
2015,06,27,02,31,17.60
2015,06,27,02,32,17.60
2015,06,27,02,33,17.60
2015,06,27,02,34,17.60
2015,06,27,02,35,17.60
2015,06,27,02,36,17.60
2015,06,27,02,37,17.60
2015,06,27,02,38,17.60
2015,06,27,02,39,17.60
2015,06,27,02,40,17.60
2015,06,27,02,41,17.60
2015,06,27,02,42,17.60
2015,06,27,02,43,17.60
2015,06,27,02,44,17.60
2015,06,27,02,45,17.60
2015,06,27,02,46,17.50
2015,06,27,02,47,17.50
2015,06,27,02,48,17.40
2015,06,27,02,49,17.40
2015,06,27,02,50,17.40
2015,06,27,02,51,17.30
2015,06,27,02,52,17.30
2015,06,27,02,53,17.30
2015,06,27,02,54,17.30
2015,06,27,02,55,17.30
2015,06,27,02,56,17.30
2015,06,27,02,57,17.30
2015,06,27,02,58,17.30
2015,06,27,02,59,17.20
2015,06,27,03,00,17.20
2015,06,27,03,01,17.20
2015,06,27,03,02,17.20
2015,06,27,03,03,17.20
2015,06,27,03,04,17.20
2015,06,27,03,05,17.20
2015,06,27,03,06,17.20
2015,06,27,03,07,17.20
2015,06,27,03,08,17.20
2015,06,27,03,09,17.20
2015,06,27,03,10,17.10
2015,06,27,03,11,17.10
2015,06,27,03,12,17.10
2015,06,27,03,13,17.10
2015,06,27,03,14,17.00
2015,06,27,03,15,17.00
2015,06,27,03,16,16.90
2015,06,27,03,17,16.90
2015,06,27,03,18,16.90
2015,06,27,03,19,16.90
2015,06,27,03,20,16.90
2015,06,27,03,21,16.90
2015,06,27,03,22,16.90
2015,06,27,03,23,16.90
2015,06,27,03,24,16.80
2015,06,27,03,25,16.80
2015,06,27,03,26,16.80
2015,06,27,03,27,16.80
2015,06,27,03,28,16.80
2015,06,27,03,29,16.80
2015,06,27,03,30,16.80
2015,06,27,03,31,16.80
2015,06,27,03,32,16.80
2015,06,27,03,33,16.80
2015,06,27,03,34,16.90
2015,06,27,03,35,16.90
2015,06,27,03,36,16.90
2015,06,27,03,37,16.90
2015,06,27,03,38,16.90
2015,06,27,03,39,16.90
2015,06,27,03,40,16.90
2015,06,27,03,41,16.90
2015,06,27,03,42,16.90
2015,06,27,03,43,16.90
2015,06,27,03,44,16.90
2015,06,27,03,45,16.90
2015,06,27,03,46,17.00
2015,06,27,03,47,17.00
2015,06,27,03,48,17.00
2015,06,27,03,49,17.00
2015,06,27,03,50,17.10
2015,06,27,03,51,17.10
2015,06,27,03,52,17.10
2015,06,27,03,53,17.10
2015,06,27,03,54,17.10
2015,06,27,03,55,17.10
2015,06,27,03,56,17.10
2015,06,27,03,57,17.10
2015,06,27,03,58,17.20
2015,06,27,03,59,17.20
2015,06,27,04,00,17.20
2015,06,27,04,01,17.20
2015,06,27,04,02,17.20
2015,06,27,04,03,17.20
2015,06,27,04,04,17.20
2015,06,27,04,05,17.20
2015,06,27,04,06,17.30
2015,06,27,04,07,17.30
2015,06,27,04,08,17.30
2015,06,27,04,09,17.30
2015,06,27,04,10,17.40
2015,06,27,04,11,17.40
2015,06,27,04,12,17.40
2015,06,27,04,13,17.50
2015,06,27,04,14,17.50
2015,06,27,04,15,17.60
2015,06,27,04,16,17.60
2015,06,27,04,17,17.60
2015,06,27,04,18,17.70
2015,06,27,04,19,17.70
2015,06,27,04,20,17.70
2015,06,27,04,21,17.70
2015,06,27,04,22,17.80
2015,06,27,04,23,17.80
2015,06,27,04,24,17.80
2015,06,27,04,25,17.80
2015,06,27,04,26,17.80
2015,06,27,04,27,17.80
2015,06,27,04,28,17.80
2015,06,27,04,29,17.80
2015,06,27,04,30,17.80
2015,06,27,04,31,17.70
2015,06,27,04,32,17.70
2015,06,27,04,33,17.70
2015,06,27,04,34,17.60
2015,06,27,04,35,17.50
2015,06,27,04,36,17.50
2015,06,27,04,37,17.40
2015,06,27,04,38,17.30
2015,06,27,04,39,17.30
2015,06,27,04,40,17.20
2015,06,27,04,41,17.20
2015,06,27,04,42,17.20
2015,06,27,04,43,17.10
2015,06,27,04,44,17.10
2015,06,27,04,45,17.10
2015,06,27,04,46,17.10
2015,06,27,04,47,17.10
2015,06,27,04,48,17.10
2015,06,27,04,49,17.10
2015,06,27,04,50,17.10
2015,06,27,04,51,17.10
2015,06,27,04,52,17.20
2015,06,27,04,53,17.20
2015,06,27,04,54,17.20
2015,06,27,04,55,17.20
2015,06,27,04,56,17.20
2015,06,27,04,57,17.20
2015,06,27,04,58,17.20
2015,06,27,04,59,17.30
2015,06,27,05,00,17.30
2015,06,27,05,01,17.20
2015,06,27,05,02,17.10
2015,06,27,05,03,17.00
2015,06,27,05,04,16.90
2015,06,27,05,05,16.70
2015,06,27,05,06,16.60
2015,06,27,05,07,16.50
2015,06,27,05,08,16.40
2015,06,27,05,09,16.30
2015,06,27,05,10,16.30
2015,06,27,05,11,16.20
2015,06,27,05,12,16.20
2015,06,27,05,13,16.10
2015,06,27,05,14,16.10
2015,06,27,05,15,16.10
2015,06,27,05,16,16.10
2015,06,27,05,17,16.10
2015,06,27,05,18,16.10
2015,06,27,05,19,16.10
2015,06,27,05,20,16.10
2015,06,27,05,21,16.10
2015,06,27,05,22,16.20
2015,06,27,05,23,16.30
2015,06,27,05,24,16.40
2015,06,27,05,25,16.40
2015,06,27,05,26,16.50
2015,06,27,05,27,16.60
2015,06,27,05,28,16.70
2015,06,27,05,29,16.80
2015,06,27,05,30,16.80
2015,06,27,05,31,16.90
2015,06,27,05,32,16.90
2015,06,27,05,33,17.00
2015,06,27,05,34,17.10
2015,06,27,05,35,17.10
2015,06,27,05,36,17.10
2015,06,27,05,37,17.20
2015,06,27,05,38,17.20
2015,06,27,05,39,17.30
2015,06,27,05,40,17.30
2015,06,27,05,41,17.40
2015,06,27,05,42,17.40
2015,06,27,05,43,17.50
2015,06,27,05,44,17.50
2015,06,27,05,45,17.60
2015,06,27,05,46,17.60
2015,06,27,05,47,17.70
2015,06,27,05,48,17.70
2015,06,27,05,49,17.80
2015,06,27,05,50,17.80
2015,06,27,05,51,17.80
2015,06,27,05,52,17.80
2015,06,27,05,53,17.90
2015,06,27,05,54,17.90
2015,06,27,05,55,17.90
2015,06,27,05,56,18.00
2015,06,27,05,57,18.00
2015,06,27,05,58,18.10
2015,06,27,05,59,18.10
2015,06,27,06,00,18.10
2015,06,27,06,01,18.20
2015,06,27,06,02,18.20
2015,06,27,06,03,18.20
2015,06,27,06,04,18.30
2015,06,27,06,05,18.30
2015,06,27,06,06,18.40
2015,06,27,06,07,18.40
2015,06,27,06,08,18.40
2015,06,27,06,09,18.50
2015,06,27,06,10,18.60
2015,06,27,06,11,18.60
2015,06,27,06,12,18.70
2015,06,27,06,13,18.70
2015,06,27,06,14,18.80
2015,06,27,06,15,18.80
2015,06,27,06,16,18.90
2015,06,27,06,17,18.90
2015,06,27,06,18,19.00
2015,06,27,06,19,19.10
2015,06,27,06,20,19.10
2015,06,27,06,21,19.10
2015,06,27,06,22,19.20
2015,06,27,06,23,19.20
2015,06,27,06,24,19.20
2015,06,27,06,25,19.20
2015,06,27,06,26,19.20
2015,06,27,06,27,19.30
2015,06,27,06,28,19.30
2015,06,27,06,29,19.30
2015,06,27,06,30,19.40
2015,06,27,06,31,19.40
2015,06,27,06,32,19.50
2015,06,27,06,33,19.50
2015,06,27,06,34,19.60
2015,06,27,06,35,19.70
2015,06,27,06,36,19.70
2015,06,27,06,37,19.80
2015,06,27,06,38,19.80
2015,06,27,06,39,19.80
2015,06,27,06,40,19.80
2015,06,27,06,41,19.70
2015,06,27,06,42,19.80
2015,06,27,06,43,19.80
2015,06,27,06,44,19.80
2015,06,27,06,45,19.80
2015,06,27,06,46,19.80
2015,06,27,06,47,19.80
2015,06,27,06,48,19.80
2015,06,27,06,49,19.80
2015,06,27,06,50,19.80
2015,06,27,06,51,19.80
2015,06,27,06,52,19.80
2015,06,27,06,53,19.70
2015,06,27,06,54,19.70
2015,06,27,06,55,19.70
2015,06,27,06,56,19.70
2015,06,27,06,57,19.60
2015,06,27,06,58,19.60
2015,06,27,06,59,19.60
2015,06,27,07,00,19.60
2015,06,27,07,01,19.70
2015,06,27,07,02,19.70
2015,06,27,07,03,19.80
2015,06,27,07,04,19.80
2015,06,27,07,05,19.90
2015,06,27,07,06,19.90
2015,06,27,07,07,20.00
2015,06,27,07,08,20.00
2015,06,27,07,09,20.10
2015,06,27,07,10,20.10
2015,06,27,07,11,20.10
2015,06,27,07,12,20.10
2015,06,27,07,13,20.20
2015,06,27,07,14,20.20
2015,06,27,07,15,20.20
2015,06,27,07,16,20.20
2015,06,27,07,17,20.20
2015,06,27,07,18,20.20
2015,06,27,07,19,20.20
2015,06,27,07,20,20.20
2015,06,27,07,21,20.20
2015,06,27,07,22,20.20
2015,06,27,07,23,20.20
2015,06,27,07,24,20.20
2015,06,27,07,25,20.20
2015,06,27,07,26,20.20
2015,06,27,07,27,20.30
2015,06,27,07,28,20.30
2015,06,27,07,29,20.30
2015,06,27,07,30,20.40
2015,06,27,07,31,20.40
2015,06,27,07,32,20.50
2015,06,27,07,33,20.60
2015,06,27,07,34,20.60
2015,06,27,07,35,20.70
2015,06,27,07,36,20.70
2015,06,27,07,37,20.80
2015,06,27,07,38,20.80
2015,06,27,07,39,20.90
2015,06,27,07,40,20.90
2015,06,27,07,41,21.00
2015,06,27,07,42,21.00
2015,06,27,07,43,21.10
2015,06,27,07,44,21.10
2015,06,27,07,45,21.10
2015,06,27,07,46,21.20
2015,06,27,07,47,21.20
2015,06,27,07,48,21.20
2015,06,27,07,49,21.20
2015,06,27,07,50,21.20
2015,06,27,07,51,21.10
2015,06,27,07,52,21.10
2015,06,27,07,53,21.10
2015,06,27,07,54,21.10
2015,06,27,07,55,21.00
2015,06,27,07,56,21.10
2015,06,27,07,57,21.10
2015,06,27,07,58,21.10
2015,06,27,07,59,21.10
2015,06,27,08,00,21.10
2015,06,27,08,01,21.10
2015,06,27,08,02,21.10
2015,06,27,08,03,21.10
2015,06,27,08,04,21.20
2015,06,27,08,05,21.20
2015,06,27,08,06,21.20
2015,06,27,08,07,21.20
2015,06,27,08,08,21.20
2015,06,27,08,09,21.20
2015,06,27,08,10,21.30
2015,06,27,08,11,21.30
2015,06,27,08,12,21.40
2015,06,27,08,13,21.40
2015,06,27,08,14,21.50
2015,06,27,08,15,21.50
2015,06,27,08,16,21.60
2015,06,27,08,17,21.60
2015,06,27,08,18,21.70
2015,06,27,08,19,21.70
2015,06,27,08,20,21.80
2015,06,27,08,21,21.80
2015,06,27,08,22,21.90
2015,06,27,08,23,21.90
2015,06,27,08,24,21.90
2015,06,27,08,25,21.90
2015,06,27,08,26,21.90
2015,06,27,08,27,21.90
2015,06,27,08,28,21.90
2015,06,27,08,29,22.00
2015,06,27,08,30,22.00
2015,06,27,08,31,22.10
2015,06,27,08,32,22.10
2015,06,27,08,33,22.20
2015,06,27,08,34,22.20
2015,06,27,08,35,22.20
2015,06,27,08,36,22.20
2015,06,27,08,37,22.20
2015,06,27,08,38,22.30
2015,06,27,08,39,22.30
2015,06,27,08,40,22.40
2015,06,27,08,41,22.50
2015,06,27,08,42,22.50
2015,06,27,08,43,22.60
2015,06,27,08,44,22.60
2015,06,27,08,45,22.50
2015,06,27,08,46,22.50
2015,06,27,08,47,22.40
2015,06,27,08,48,22.40
2015,06,27,08,49,22.50
2015,06,27,08,50,22.50
2015,06,27,08,51,22.60
2015,06,27,08,52,22.50
2015,06,27,08,53,22.50
2015,06,27,08,54,22.40
2015,06,27,08,55,22.40
2015,06,27,08,56,22.30
2015,06,27,08,57,22.30
2015,06,27,08,58,22.40
2015,06,27,08,59,22.40
2015,06,27,09,00,22.50
2015,06,27,09,01,22.50
2015,06,27,09,02,22.60
2015,06,27,09,03,22.50
2015,06,27,09,04,22.50
2015,06,27,09,05,22.50
2015,06,27,09,06,22.40
2015,06,27,09,07,22.40
2015,06,27,09,08,22.40
2015,06,27,09,09,22.40
2015,06,27,09,10,22.50
2015,06,27,09,11,22.50
2015,06,27,09,12,22.60
2015,06,27,09,13,22.60
2015,06,27,09,14,22.60
2015,06,27,09,15,22.70
2015,06,27,09,16,22.80
2015,06,27,09,17,22.80
2015,06,27,09,18,22.90
2015,06,27,09,19,22.90
2015,06,27,09,20,22.90
2015,06,27,09,21,22.80
2015,06,27,09,22,22.90
2015,06,27,09,23,22.90
2015,06,27,09,24,23.00
2015,06,27,09,25,23.10
2015,06,27,09,26,23.00
2015,06,27,09,27,22.90
2015,06,27,09,28,22.80
2015,06,27,09,29,22.70
2015,06,27,09,30,22.50
2015,06,27,09,31,22.40
2015,06,27,09,32,22.30
2015,06,27,09,33,22.30
2015,06,27,09,34,22.20
2015,06,27,09,35,22.10
2015,06,27,09,36,22.00
2015,06,27,09,37,22.00
2015,06,27,09,38,22.00
2015,06,27,09,39,22.00
2015,06,27,09,40,22.00
2015,06,27,09,41,22.00
2015,06,27,09,42,22.00
2015,06,27,09,43,22.00
2015,06,27,09,44,22.10
2015,06,27,09,45,22.10
2015,06,27,09,46,22.10
2015,06,27,09,47,22.10
2015,06,27,09,48,22.10
2015,06,27,09,49,22.20
2015,06,27,09,50,22.20
2015,06,27,09,51,22.30
2015,06,27,09,52,22.30
2015,06,27,09,53,22.30
2015,06,27,09,54,22.30
2015,06,27,09,55,22.30
2015,06,27,09,56,22.30
2015,06,27,09,57,22.30
2015,06,27,09,58,22.20
2015,06,27,09,59,22.10
2015,06,27,10,00,22.10
2015,06,27,10,01,22.00
2015,06,27,10,02,21.90
2015,06,27,10,03,21.80
2015,06,27,10,04,21.80
2015,06,27,10,05,21.80
2015,06,27,10,06,21.70
2015,06,27,10,07,21.70
2015,06,27,10,08,21.70
2015,06,27,10,09,21.70
2015,06,27,10,10,21.80
2015,06,27,10,11,21.80
2015,06,27,10,12,21.90
2015,06,27,10,13,22.00
2015,06,27,10,14,22.10
2015,06,27,10,15,22.20
2015,06,27,10,16,22.30
2015,06,27,10,17,22.40
2015,06,27,10,18,22.50
2015,06,27,10,19,22.60
2015,06,27,10,20,22.70
2015,06,27,10,21,22.70
2015,06,27,10,22,22.80
2015,06,27,10,23,22.80
2015,06,27,10,24,22.90
2015,06,27,10,25,23.00
2015,06,27,10,26,23.10
2015,06,27,10,27,23.20
2015,06,27,10,28,23.20
2015,06,27,10,29,23.20
2015,06,27,10,30,23.20
2015,06,27,10,31,23.20
2015,06,27,10,32,23.20
2015,06,27,10,33,23.20
2015,06,27,10,34,23.30
2015,06,27,10,35,23.30
2015,06,27,10,36,23.30
2015,06,27,10,37,23.30
2015,06,27,10,38,23.30
2015,06,27,10,39,23.30
2015,06,27,10,40,23.30
2015,06,27,10,41,23.10
2015,06,27,10,42,23.00
2015,06,27,10,43,22.90
2015,06,27,10,44,22.80
2015,06,27,10,45,22.70
2015,06,27,10,46,22.70
2015,06,27,10,47,22.70
2015,06,27,10,48,22.70
2015,06,27,10,49,22.70
2015,06,27,10,50,22.70
2015,06,27,10,51,22.60
2015,06,27,10,52,22.50
2015,06,27,10,53,22.50
2015,06,27,10,54,22.40
2015,06,27,10,55,22.40
2015,06,27,10,56,22.40
2015,06,27,10,57,22.40
2015,06,27,10,58,22.40
2015,06,27,10,59,22.40
2015,06,27,11,00,22.40
2015,06,27,11,01,22.40
2015,06,27,11,02,22.40
2015,06,27,11,03,22.40
2015,06,27,11,04,22.40
2015,06,27,11,05,22.40
2015,06,27,11,06,22.30
2015,06,27,11,07,22.30
2015,06,27,11,08,22.20
2015,06,27,11,09,22.20
2015,06,27,11,10,22.20
2015,06,27,11,11,22.20
2015,06,27,11,12,22.20
2015,06,27,11,13,22.20
2015,06,27,11,14,22.20
2015,06,27,11,15,22.20
2015,06,27,11,16,22.20
2015,06,27,11,17,22.20
2015,06,27,11,18,22.20
2015,06,27,11,19,22.20
2015,06,27,11,20,22.20
2015,06,27,11,21,22.20
2015,06,27,11,22,22.30
2015,06,27,11,23,22.30
2015,06,27,11,24,22.40
2015,06,27,11,25,22.50
2015,06,27,11,26,22.60
2015,06,27,11,27,22.70
2015,06,27,11,28,22.80
2015,06,27,11,29,22.90
2015,06,27,11,30,23.10
2015,06,27,11,31,23.10
2015,06,27,11,32,23.20
2015,06,27,11,33,23.20
2015,06,27,11,34,23.20
2015,06,27,11,35,23.20
2015,06,27,11,36,23.20
2015,06,27,11,37,23.10
2015,06,27,11,38,23.00
2015,06,27,11,39,23.00
2015,06,27,11,40,23.00
2015,06,27,11,41,23.10
2015,06,27,11,42,23.10
2015,06,27,11,43,23.10
2015,06,27,11,44,23.10
2015,06,27,11,45,23.10
2015,06,27,11,46,23.10
2015,06,27,11,47,23.10
2015,06,27,11,48,23.10
2015,06,27,11,49,23.20
2015,06,27,11,50,23.20
2015,06,27,11,51,23.20
2015,06,27,11,52,23.30
2015,06,27,11,53,23.30
2015,06,27,11,54,23.40
2015,06,27,11,55,23.40
2015,06,27,11,56,23.50
2015,06,27,11,57,23.60
2015,06,27,11,58,23.60
2015,06,27,11,59,23.70
2015,06,27,12,00,23.70
2015,06,27,12,01,23.80
2015,06,27,12,02,23.80
2015,06,27,12,03,23.90
2015,06,27,12,04,23.90
2015,06,27,12,05,24.00
2015,06,27,12,06,24.00
2015,06,27,12,07,24.00
2015,06,27,12,08,24.10
2015,06,27,12,09,24.00
2015,06,27,12,10,24.00
2015,06,27,12,11,23.90
2015,06,27,12,12,23.90
2015,06,27,12,13,23.90
2015,06,27,12,14,23.80
2015,06,27,12,15,23.80
2015,06,27,12,16,23.80
2015,06,27,12,17,23.80
2015,06,27,12,18,23.80
2015,06,27,12,19,23.80
2015,06,27,12,20,23.80
2015,06,27,12,21,23.80
2015,06,27,12,22,23.90
2015,06,27,12,23,23.90
2015,06,27,12,24,23.90
2015,06,27,12,25,24.00
2015,06,27,12,26,24.00
2015,06,27,12,27,24.10
2015,06,27,12,28,24.10
2015,06,27,12,29,24.10
2015,06,27,12,30,24.20
2015,06,27,12,31,24.20
2015,06,27,12,32,24.20
2015,06,27,12,33,24.30
2015,06,27,12,34,24.30
2015,06,27,12,35,24.30
2015,06,27,12,36,24.30
2015,06,27,12,37,24.30
2015,06,27,12,38,24.40
2015,06,27,12,39,24.40
2015,06,27,12,40,24.40
2015,06,27,12,41,24.50
2015,06,27,12,42,24.50
2015,06,27,12,43,24.50
2015,06,27,12,44,24.60
2015,06,27,12,45,24.70
2015,06,27,12,46,24.70
2015,06,27,12,47,24.90
2015,06,27,12,48,24.90
2015,06,27,12,49,24.90
2015,06,27,12,50,24.90
2015,06,27,12,51,24.90
2015,06,27,12,52,24.80
2015,06,27,12,53,24.80
2015,06,27,12,54,24.70
2015,06,27,12,55,24.60
2015,06,27,12,56,24.60
2015,06,27,12,57,24.60
2015,06,27,12,58,24.60
2015,06,27,12,59,24.60
2015,06,27,13,00,24.60
2015,06,27,13,01,24.60
2015,06,27,13,02,24.70
2015,06,27,13,03,24.70
2015,06,27,13,04,24.70
2015,06,27,13,05,24.70
2015,06,27,13,06,24.70
2015,06,27,13,07,24.70
2015,06,27,13,08,24.70
2015,06,27,13,09,24.70
2015,06,27,13,10,24.70
2015,06,27,13,11,24.80
2015,06,27,13,12,24.80
2015,06,27,13,13,24.90
2015,06,27,13,14,25.00
2015,06,27,13,15,25.00
2015,06,27,13,16,25.10
2015,06,27,13,17,25.00
2015,06,27,13,18,25.00
2015,06,27,13,19,24.90
2015,06,27,13,20,24.90
2015,06,27,13,21,24.90
2015,06,27,13,22,24.90
2015,06,27,13,23,24.80
2015,06,27,13,24,24.80
2015,06,27,13,25,24.80
2015,06,27,13,26,24.80
2015,06,27,13,27,24.80
2015,06,27,13,28,24.80
2015,06,27,13,29,24.80
2015,06,27,13,30,24.80
2015,06,27,13,31,24.80
2015,06,27,13,32,24.90
2015,06,27,13,33,24.90
2015,06,27,13,34,24.90
2015,06,27,13,35,24.90
2015,06,27,13,36,24.90
2015,06,27,13,37,24.90
2015,06,27,13,38,24.90
2015,06,27,13,39,25.00
2015,06,27,13,40,25.00
2015,06,27,13,41,25.00
2015,06,27,13,42,25.00
2015,06,27,13,43,25.00
2015,06,27,13,44,25.10
2015,06,27,13,45,25.10
2015,06,27,13,46,25.10
2015,06,27,13,47,25.20
2015,06,27,13,48,25.20
2015,06,27,13,49,25.20
2015,06,27,13,50,25.20
2015,06,27,13,51,25.20
2015,06,27,13,52,25.30
2015,06,27,13,53,25.40
2015,06,27,13,54,25.50
2015,06,27,13,55,25.60
2015,06,27,13,56,25.70
2015,06,27,13,57,25.70
2015,06,27,13,58,25.80
2015,06,27,13,59,25.80
2015,06,27,14,00,25.80
2015,06,27,14,01,25.70
2015,06,27,14,02,25.70
2015,06,27,14,03,25.70
2015,06,27,14,04,25.70
2015,06,27,14,05,25.70
2015,06,27,14,06,25.70
2015,06,27,14,07,25.70
2015,06,27,14,08,25.70
2015,06,27,14,09,25.80
2015,06,27,14,10,25.80
2015,06,27,14,11,25.80
2015,06,27,14,12,25.80
2015,06,27,14,13,25.80
2015,06,27,14,14,25.80
2015,06,27,14,15,25.80
2015,06,27,14,16,25.80
2015,06,27,14,17,25.80
2015,06,27,14,18,25.80
2015,06,27,14,19,25.80
2015,06,27,14,20,25.80
2015,06,27,14,21,25.80
2015,06,27,14,22,25.80
2015,06,27,14,23,25.90
2015,06,27,14,24,25.90
2015,06,27,14,25,26.10
2015,06,27,14,26,26.20
2015,06,27,14,27,26.30
2015,06,27,14,28,26.30
2015,06,27,14,29,26.30
2015,06,27,14,30,26.40
2015,06,27,14,31,26.40
2015,06,27,14,32,26.40
2015,06,27,14,33,26.40
2015,06,27,14,34,26.30
2015,06,27,14,35,26.30
2015,06,27,14,36,26.30
2015,06,27,14,37,26.30
2015,06,27,14,38,26.30
2015,06,27,14,39,26.40
2015,06,27,14,40,26.50
2015,06,27,14,41,26.60
2015,06,27,14,42,26.60
2015,06,27,14,43,26.60
2015,06,27,14,44,26.70
2015,06,27,14,45,26.70
2015,06,27,14,46,26.80
2015,06,27,14,47,26.80
2015,06,27,14,48,26.70
2015,06,27,14,49,26.70
2015,06,27,14,50,26.60
2015,06,27,14,51,26.60
2015,06,27,14,52,26.60
2015,06,27,14,53,26.60
2015,06,27,14,54,26.60
2015,06,27,14,55,26.50
2015,06,27,14,56,26.40
2015,06,27,14,57,26.40
2015,06,27,14,58,26.40
2015,06,27,14,59,26.40
2015,06,27,15,00,26.40
2015,06,27,15,01,26.40
2015,06,27,15,02,26.40
2015,06,27,15,03,26.50
2015,06,27,15,04,26.50
2015,06,27,15,05,26.50
2015,06,27,15,06,26.50
2015,06,27,15,07,26.60
2015,06,27,15,08,26.60
2015,06,27,15,09,26.60
2015,06,27,15,10,26.60
2015,06,27,15,11,26.60
2015,06,27,15,12,26.60
2015,06,27,15,13,26.60
2015,06,27,15,14,26.60
2015,06,27,15,15,26.60
2015,06,27,15,16,26.70
2015,06,27,15,17,26.70
2015,06,27,15,18,26.60
2015,06,27,15,19,26.60
2015,06,27,15,20,26.60
2015,06,27,15,21,26.50
2015,06,27,15,22,26.50
2015,06,27,15,23,26.50
2015,06,27,15,24,26.40
2015,06,27,15,25,26.40
2015,06,27,15,26,26.40
2015,06,27,15,27,26.40
2015,06,27,15,28,26.30
2015,06,27,15,29,26.30
2015,06,27,15,30,26.20
2015,06,27,15,31,26.20
2015,06,27,15,32,26.20
2015,06,27,15,33,26.10
2015,06,27,15,34,26.10
2015,06,27,15,35,26.10
2015,06,27,15,36,26.10
2015,06,27,15,37,26.10
2015,06,27,15,38,26.20
2015,06,27,15,39,26.20
2015,06,27,15,40,26.30
2015,06,27,15,41,26.30
2015,06,27,15,42,26.30
2015,06,27,15,43,26.30
2015,06,27,15,44,26.30
2015,06,27,15,45,26.40
2015,06,27,15,46,26.40
2015,06,27,15,47,26.40
2015,06,27,15,48,26.50
2015,06,27,15,49,26.60
2015,06,27,15,50,26.60
2015,06,27,15,51,26.70
2015,06,27,15,52,26.80
2015,06,27,15,53,26.80
2015,06,27,15,54,26.90
2015,06,27,15,55,27.00
2015,06,27,15,56,27.10
2015,06,27,15,57,27.10
2015,06,27,15,58,27.10
2015,06,27,15,59,27.20
2015,06,27,16,00,27.20
2015,06,27,16,01,27.30
2015,06,27,16,02,27.30
2015,06,27,16,03,27.30
2015,06,27,16,04,27.30
2015,06,27,16,05,27.30
2015,06,27,16,06,27.40
2015,06,27,16,07,27.40
2015,06,27,16,08,27.50
2015,06,27,16,09,27.50
2015,06,27,16,10,27.50
2015,06,27,16,11,27.50
2015,06,27,16,12,27.60
2015,06,27,16,13,27.60
2015,06,27,16,14,27.60
2015,06,27,16,15,27.70
2015,06,27,16,16,27.70
2015,06,27,16,17,27.70
2015,06,27,16,18,27.80
2015,06,27,16,19,27.90
2015,06,27,16,20,27.90
2015,06,27,16,21,27.90
2015,06,27,16,22,27.90
2015,06,27,16,23,27.90
2015,06,27,16,24,27.80
2015,06,27,16,25,27.80
2015,06,27,16,26,27.80
2015,06,27,16,27,27.70
2015,06,27,16,28,27.70
2015,06,27,16,29,27.70
2015,06,27,16,30,27.70
2015,06,27,16,31,27.70
2015,06,27,16,32,27.60
2015,06,27,16,33,27.60
2015,06,27,16,34,27.50
2015,06,27,16,35,27.50
2015,06,27,16,36,27.50
2015,06,27,16,37,27.50
2015,06,27,16,38,27.50
2015,06,27,16,39,27.50
2015,06,27,16,40,27.50
2015,06,27,16,41,27.50
2015,06,27,16,42,27.60
2015,06,27,16,43,27.50
2015,06,27,16,44,27.60
2015,06,27,16,45,27.60
2015,06,27,16,46,27.70
2015,06,27,16,47,27.70
2015,06,27,16,48,27.70
2015,06,27,16,49,27.80
2015,06,27,16,50,27.80
2015,06,27,16,51,27.90
2015,06,27,16,52,27.90
2015,06,27,16,53,28.00
2015,06,27,16,54,28.10
2015,06,27,16,55,28.10
2015,06,27,16,56,28.20
2015,06,27,16,57,28.20
2015,06,27,16,58,28.30
2015,06,27,16,59,28.30
2015,06,27,17,00,28.30
2015,06,27,17,01,28.30
2015,06,27,17,02,28.20
2015,06,27,17,03,28.20
2015,06,27,17,04,28.20
2015,06,27,17,05,28.20
2015,06,27,17,06,28.20
2015,06,27,17,07,28.20
2015,06,27,17,08,28.20
2015,06,27,17,09,28.20
2015,06,27,17,10,28.20
2015,06,27,17,11,28.20
2015,06,27,17,12,28.30
2015,06,27,17,13,28.30
2015,06,27,17,14,28.30
2015,06,27,17,15,28.20
2015,06,27,17,16,28.20
2015,06,27,17,17,28.30
2015,06,27,17,18,28.20
2015,06,27,17,19,28.20